Location: Decatur Area Astronomy Club
(40.0275°N, 88.7810°W)
Time: 09:44:07
(UTC-05:00)

Daily predictions for brighter satellites

Satellite Brightness Start Highest point End
(mag) Time Altitude Azimuth Time Altitude Azimuth Time Altitude Azimuth
Cosmos 2263 Rocket 2.9 20:10:00 10° N 20:15:09 37° ENE 20:20:16 10° SE
Atlas Centaur 2 3.5 20:09:43 10° SW 20:15:13 31° SSE 20:21:46 10° ESE
Lacrosse 4 Rocket 1.5 20:16:02 10° NNW 20:20:23 69° ENE 20:24:46 10° SE
Helios 1B rocket 3.1 20:18:07 10° NNE 20:21:51 33° E 20:25:33 10° SSE
Cosmos 2322 Rocket 2.1 20:19:03 10° SSW 20:24:38 76° ESE 20:30:16 10° NNE
ORS 1 (USA 231) 4.5 20:21:42 10° W 20:24:47 84° S 20:27:47 11° E
ALOS 3.6 20:20:48 10° S 20:25:14 43° W 20:29:42 10° NNW
Resurs 01 Rocket 1.8 20:21:56 10° S 20:26:22 80° WSW 20:30:51 10° NNW
GRACE-1 4.3 20:24:35 10° N 20:27:18 63° W 20:30:00 10° S
GRACE-2 4.3 20:24:57 10° N 20:27:40 64° W 20:30:22 10° S
USA 267 3.7 20:21:32 10° NE 20:28:02 67° NW 20:34:30 10° WSW
H-2A R/B 3.5 20:25:18 10° S 20:29:07 56° W 20:32:55 10° NNW
Cosmos 1869 3.4 20:26:58 10° S 20:30:53 78° W 20:34:51 10° N
SAR-Lupe-4 4.1 20:28:19 10° SE 20:31:42 40° ENE 20:35:05 10° N
COSMOS 2428 4.3 20:29:20 10° SE 20:32:06 14° E 20:34:51 10° ENE
Cosmos 2360 Rocket 2.8 20:28:09 10° SSE 20:33:09 33° ESE 20:38:11 10° NE
Cosmos 1980 Rocket 4.2 20:29:00 10° WSW 20:34:06 34° WNW 20:39:15 10° N
Cosmos 1825 2.2 20:30:34 10° N 20:34:21 66° E 20:38:08 10° SSE
OAO 3 Rocket 3.7 20:31:49 10° WSW 20:36:28 46° S 20:40:29 14° ESE
Cosmos 1503 Rocket 4.0 20:33:15 10° NNW 20:38:33 86° WSW 20:43:44 10° SSE
Spot 2 Rocket 3.9 20:34:30 10° S 20:39:34 67° WSW 20:44:39 10° NNW
Cosmos 1354 Rocket 4.2 20:39:10 10° NNW 20:44:26 76° WSW 20:49:39 10° S
Cosmos 968 Rocket 4.3 20:40:13 10° N 20:44:56 33° ENE 20:48:27 16° ESE
Cosmos 2322 4.2 20:43:07 10° S 20:48:21 39° ESE 20:53:35 10° NE
ATLAS 5 CENTAUR R/B 2.8 20:42:47 10° NNW 20:48:38 52° NE 20:53:36 17° ESE
SAR-Lupe-1 4.1 20:45:54 13° SSE 20:49:02 58° ENE 20:52:35 10° N
Cosmos 1408 2.8 20:45:57 10° NNW 20:49:37 73° W 20:53:15 10° S
SL-16 R/B 2.8 20:49:01 10° SW 20:54:37 63° WNW 21:00:16 10° NNE
Cosmos 2026 Rocket 4.1 20:48:26 10° N 20:54:40 81° W 21:00:46 10° S
Meteor 1-29 2.8 20:52:55 10° NNE 20:56:24 69° ESE 20:59:49 10° S
Cosmos 1867 4.0 20:52:30 10° NNW 20:57:46 47° NE 21:01:17 20° ESE
Envisat 2.9 20:54:36 10° SSE 20:59:41 82° ENE 21:04:47 10° N
Cosmos 1733 Rocket 3.1 20:56:03 10° N 21:00:32 86° W 21:04:58 10° S
H-2A R/B 3.9 20:59:46 11° E 21:01:22 13° ENE 21:03:29 10° NE
USA 234 3.5 20:56:41 17° ESE 21:01:51 61° NE 21:08:17 10° NW
Cosmos 1933 3.4 21:03:45 10° S 21:07:46 81° W 21:11:49 10° N
Cosmos 1862 Rocket 3.8 21:04:30 10° SSW 21:08:57 75° W 21:13:27 10° N
Okean 1-7 4.1 21:08:39 24° ESE 21:09:29 26° E 21:13:09 10° NNE
Helios 1A 3.5 21:06:12 10° S 21:10:23 59° W 21:14:36 10° NNW
Cosmos 2333 Rocket 4.1 21:13:24 12° E 21:13:24 12° E 21:14:30 10° ENE
SEDSat Delta rocket 4.3 21:09:19 10° WSW 21:13:58 34° S 21:16:15 25° SE
USA 186 4.0 21:12:42 10° SSW 21:14:53 21° W 21:17:12 10° NW
Cosmos 2278 Rocket 4.3 21:12:53 10° NNE 21:15:06 12° NE 21:17:19 10° ENE
Cosmos 1844 Rocket 3.9 21:12:21 10° N 21:17:01 27° NE 21:19:16 21° E
SJ-11-01 4.4 21:13:36 14° S 21:17:38 75° WSW 21:22:19 10° NNW
CZ-4B DEB 3.4 21:16:48 19° S 21:18:43 48° W 21:21:40 10° NNW
YAOGAN 6 2.5 21:21:30 36° SSE 21:22:50 73° ENE 21:26:27 10° N
ERS-1 Rocket 2.9 21:22:04 27° SSE 21:24:47 67° ENE 21:29:47 10° N
MetOp-A 4.4 21:25:28 30° SE 21:27:51 51° ENE 21:33:02 10° N
Milstar 3 3.9 21:22:47 10° WSW 21:29:05 26° SSW 21:31:42 21° SSE
Cosmos 1703 Rocket 3.5 21:27:00 25° S 21:29:29 68° E 21:33:53 10° NNE
SeaSat 1 3.6 21:27:56 24° E 21:29:35 29° NE 21:33:48 10° N
Cosmos 1782 4.1 21:36:14 26° ENE 21:36:14 26° ENE 21:38:48 10° NNE
Cosmos 2219 Rocket 3.1 21:37:34 28° E 21:37:34 28° E 21:41:40 10° NE
Meteor 2-10 Rocket 4.0 21:32:45 10° SSW 21:38:34 72° W 21:44:21 10° N
Meteor 1-26 Rocket 4.3 21:34:56 10° SSW 21:40:37 81° W 21:46:27 10° N
NOSS 3-1 (C) 3.8 21:42:31 37° ESE 21:42:42 37° ESE 21:48:21 10° NE
Cosmos 1939 Rocket 4.3 21:40:34 15° SSW 21:43:25 35° W 21:47:06 10° NNW
Cosmos 2266 Rocket 4.0 21:37:11 10° N 21:43:31 85° E 21:47:08 28° S
USA 229 DEB 3.7 21:41:12 10° SW 21:48:01 85° WNW 21:55:00 10° NNE
USA 229 3.7 21:41:18 10° SW 21:48:07 85° WNW 21:55:07 10° NNE
YAOGAN 11 4.0 21:47:26 55° SE 21:48:14 71° ENE 21:52:33 10° N
SPOT 1/Viking Rocket 4.0 21:47:41 38° E 21:48:39 43° ENE 21:53:34 10° N
Cosmos 2221 Rocket 3.4 21:48:15 45° S 21:49:35 84° E 21:54:02 10° N
SPOT 5 2.8 21:50:39 52° ESE 21:51:34 63° ENE 21:56:08 10° N
Cosmos 1777 Rocket 3.9 21:51:39 10° NNW 21:56:56 72° ENE 21:58:03 54° SE
Lacrosse 4 Rocket 4.3 21:57:26 10° W 21:58:31 11° WSW 21:59:36 10° WSW
NOSS 3-1 (A) 4.3 22:00:30 30° E 22:00:30 30° E 22:04:25 10° NE
Cosmos 2263 Rocket 3.7 21:54:08 10° NW 21:58:55 30° WSW 22:02:37 15° SSW
Atlas Centaur 2 3.3 21:57:30 10° WSW 22:04:05 41° S 22:05:12 39° SSE
Cosmos 1633 4.5 22:03:04 10° NNE 22:04:45 21° NE 22:04:45 21° NE
Cosmos 2237 4.5 22:00:39 10° SSW 22:06:21 69° WNW 22:12:05 10° NNE
SL-08 RB Rocket 3.6 22:07:29 70° E 22:07:37 71° ENE 22:12:10 10° N
Meteor 1-10 Rocket 4.2 22:12:10 55° SSE 22:13:24 72° E 22:19:15 10° NNE
H-2A R/B 3.3 22:14:15 31° NE 22:14:15 31° NE 22:17:20 10° N
MOS 1-B Rocket 3.8 22:12:56 51° SSE 22:14:31 89° WSW 22:20:10 10° NNW
COSMOS 2428 2.8 22:10:54 15° SSW 22:15:36 76° WNW 22:21:20 10° NNE
Cosmos 2360 Rocket 3.8 22:11:58 10° WSW 22:17:05 34° WNW 22:22:13 10° N
Cosmos 1553 Rocket 4.2 22:17:12 48° E 22:17:24 48° E 22:23:21 10° NNE
Meteor 1-11 Rocket 4.3 22:13:25 10° N 22:18:30 41° ENE 22:18:30 41° ENE
CZ-4C R/B 3.6 22:15:21 10° NNW 22:22:04 42° NE 22:24:27 34° E
Landsat 7 4.1 22:25:08 56° NE 22:25:08 56° NE 22:29:22 10° N
Cosmos 1980 4.5 22:28:48 37° ENE 22:28:48 37° ENE 22:32:33 10° NE
Cosmos 1844 3.5 22:23:56 10° NNW 22:29:37 77° ENE 22:29:52 75° E
Cosmos 1606 4.0 22:31:23 36° N 22:31:23 36° N 22:33:46 10° N
SL-16 R/B 4.4 22:36:36 12° ENE 22:36:36 12° ENE 22:37:10 10° NE
ATLAS 5 CENTAUR R/B 3.8 22:27:55 10° NW 22:33:13 30° WSW 22:35:10 26° SW
ARGOS 3.7 22:37:52 45° SW 22:38:45 49° W 22:43:58 10° NNW
Terra 2.4 22:40:44 49° NNE 22:40:44 49° NNE 22:44:29 10° N
H-2A R/B 2.0 22:40:23 74° WNW 22:40:23 74° WNW 22:45:07 10° NNW
USA 234 4.0 22:44:02 36° SSW 22:44:59 38° SW 22:51:02 10° WNW
Okean 2 Rocket 4.5 22:43:15 10° NNW 22:47:17 32° W 22:47:26 32° W
S3M 3.8 22:47:55 80° ESE 22:47:58 80° E 22:54:12 10° N
DMSP B5D2-2 4.2 22:45:38 10° NNE 22:50:21 72° N 22:50:21 72° N
Cosmos 2237 Rocket 2.6 22:55:49 53° NE 22:55:49 53° NE 23:00:11 10° NNE
Cosmos 2333 Rocket 2.2 22:55:19 79° WNW 22:55:19 79° WNW 23:01:04 10° NNE
Cosmos 1570 Rocket 4.4 22:57:58 57° WNW 22:58:08 57° WNW 23:03:21 10° N
Gbstr 26 Del rocket 4.4 22:59:24 65° ESE 22:59:24 65° ESE 23:06:55 10° NE
Cosmos 2278 Rocket 2.4 22:54:31 10° NNW 22:59:34 66° NNE 22:59:34 66° NNE
Cosmos 1844 Rocket 3.4 22:55:49 10° NW 23:00:56 43° WSW 23:00:56 43° WSW
Meteor 2-11 Rocket 4.4 23:06:13 79° NNE 23:06:13 79° NNE 23:11:55 10° N
SeaSat 1 3.6 23:07:43 35° W 23:07:43 35° W 23:11:32 10° NW
Cosmos 2219 Rocket 3.3 23:19:11 33° W 23:20:41 39° WNW 23:25:56 10° N
Cosmos 1745 Rocket 4.2 23:15:54 10° NNW 23:22:00 67° W 23:22:00 67° W
ATLAS 2AS CENTAUR R/B 3.5 23:52:16 48° ENE 23:52:16 48° ENE 23:58:17 10° NE
Cosmos 2369 Rocket 4.3 23:52:00 10° N 23:55:39 17° NE 23:55:46 17° NE
